INTELSAT 33E DEB, 64409

Orbit data source: Space-Track

INTELSAT 33E DEB, 64409 is space debris in GEO originally from a launch on Wed, 24 Aug 2016 UTC launched from the French Guiana (FRGUI). Debris objects in space refer to the collection of defunct objects orbiting the Earth. Examples of debris include non-operational satellites, rocket bodies, and fragments generated from explosions, collisions, or faulty payload assembly.

Loading next visibility...
Identifier
64409, 2016-053AP
Orbit
GEO
Country
Flag of USUS / ITSO
Related business
Manufacturer
Boeing/ES
Mission
Spacecraft
Bus & Motor
Unknown
Mass
Unknown
Launch date (UTC)
2016-08-24 (10 years ago)
Launch vehicle
Unknown
Launch site
French Guiana (FRGUI)
Object type
Payload
Rocket body
Debris
Shape & HBR
Unknown shape, 1.1 m
Radar Cross Section
RCS unknown

Expand to show TLE details & history
Last TLE update: 19 hours ago

TLE from 19 hours ago
0 INTELSAT 33E DEB
1 64409U 16053AP  26257.65662092  .00000074  00000-0  00000-0 0  9997
2 64409   1.7510  78.3266 0054397  83.1895 278.1972  0.99468884  6753
Epoch: 2026-09-14T15:45Z
TLE epoch observation values (Epoch: 2026-09-14T15:45:32.047Z)
Latitude
-0°
Longitude
-150.9329°
Altitude
35,981.443 km
Speed
3.069 km/s
True Right ascension
05h 16m 20s
True Declination
0° 00' 00"
Sunlit
Object was in daylight at epoch
Visualization orbit readout
Latitude
Unknown
Longitude
Unknown
Altitude
Unknown
Speed
Unknown
Apparent Right ascension
Unknown
Apparent Declination
Unknown
Sunlit
N/A
Visualization observer readout
Local Sidereal Time
03:10:32
Azimuth
Unknown
Elevation
Unknown
Doppler factor
Unknown
Orbital elements
Apogee altitude
36,244.855 km
Perigee altitude
35,783.652 km
Semi-major axis
42,392.39 km
Eccentricity
0.00544
Inclination
1.751°
RAAN
78.3266°
Arg. of periapsis
83.1895°
True anomaly
277.57964°
Mean anomaly
278.1972°
Eccentric anomaly
277.88848°
Mean motion
0.24866 °/min
Orbital period
1,447.74 mins
BSTAR
0
Loading maneuver chart data...
Computing Atmospheric mass density...
Loading historical data...
Loading historical data...
Loading historical data...
Loading historical data...
Loading historical data...
Loading historical data...
Loading historical data...

Documentation

Showing up to 5 results
|